Location: Plzen
(49.7500°N, 13.3670°E)
Time: 03:14:53
(UTC+01:00)

ISS - Pass Details

Date: 03 October 2020
Orbit: 417 x 420 km, 51.6° (Epoch: 25 October)

Event Time Altitude Azimuth Distance (km) Brightness Sun altitude
Rises 21:07:53 0° 283° (WNW) 2,369 1.4 -24.2°
Reaches altitude 10° 21:10:33 10° 261° (W) 1,501 -0.2 -24.6°
Enters shadow 21:12:12 15° 232° (SW) 1,214 -1.2 -24.9°
